Regional Weather Roundup
Issued by NWS

Home | Current Version | Previous Version | Text Only | Print | Product List | Glossary On
Versions: 1 2 3 4 5 6 7 8 9 10 11 12 13 14 15 16 17 18 19 20 21 22 23 24 25 26 27 28 29 30 31 32 33 34 35 36 37 38 39 40 41 42 43 44 45 46 47 48 49 50
000
ASUS43 KLSX 280510
RWRMO

WEATHER SUMMARY FOR MISSOURI
NATIONAL WEATHER SERVICE SPRINGFIELD MO
1200 AM CDT SUN MAY 28 2017

NOTE: "FAIR" INDICATES FEW OR NO CLOUDS BELOW 12,000 FEET WITH NO
       SIGNIFICANT WEATHER AND/OR OBSTRUCTIONS TO VISIBILITY.
       CURRENT SKY AND/OR WEATHER CONDITIONS ARE NOT AVAILABLE FOR
       CHILLICOTHE AND FARMINGTON.

MOZ001>031-035>038-043-044-053-054-280600-
...NORTHERN AND WESTERN MISSOURI...

CITY           SKY/WX    TMP DP  RH WIND       PRES   REMARKS
KANSAS CTY INT CLOUDY    63  60  90 N5        29.87R
KANSAS C DTWN  CLOUDY    68  63  84 N5        29.86R
LEE`S SUMMIT   CLOUDY    65  63  93 N8        29.85F
ST JOSEPH      PTCLDY    61  61 100 N3        29.88R
CHILLICOTHE      N/A     65  62  90 N5        29.86R
KIRKSVILLE     CLOUDY    62  61  96 N8        29.84R

$$
MOZ066>068-077>081-088>096-101>105-280600-
...SOUTHWEST MISSOURI...

CITY           SKY/WX    TMP DP  RH WIND       PRES   REMARKS
SPRINGFIELD    CLOUDY    64  63  96 S8        29.83R
JOPLIN         CLOUDY    68  67  96 CALM      29.87R
BRANSON        HVY RAIN  64  63  94 CALM      29.88R

$$
MOZ032>034-039>042-045>050-055>058-069>072-280600-
...CENTRAL MISSOURI...

CITY           SKY/WX    TMP DP  RH WIND       PRES   REMARKS
COLUMBIA       CLOUDY    61  61 100 NW5       29.81F
JEFFERSON CITY CLOUDY    64  60  87 W5        29.82R
ROLLA          CLOUDY    61  61 100 N10       29.82R FOG
SEDALIA        CLOUDY    63  63 100 NW5       29.84F
WHITEMAN AFB   CLOUDY    61  61 100 CALM      29.82F
WARRENSBURG    CLOUDY    61  59  94 CALM      29.83F

$$
MOZ051-052-059>065-280600-
...EAST CENTRAL MISSOURI...

CITY           SKY/WX    TMP DP  RH WIND       PRES   REMARKS
ST LOUIS INTL  CLOUDY    66  61  84 W3        29.80R
SPIRIT OF STL  CLOUDY    63  62  97 CALM      29.79R
ST CHARLES     CLOUDY    64  63  96 CALM      29.79R

$$
MOZ072>076-082>087-097>100-106>115-280600-
...SOUTH CENTRAL AND SOUTHEAST MISSOURI...

CITY           SKY/WX    TMP DP  RH WIND       PRES   REMARKS
CAPE GIRARDEAU LGT RAIN  64  62  93 E13       29.83F
POPLAR BLUFF   LGT RAIN  64  63  96 SE9         N/A
WEST PLAINS    TSTM      62  60  93 SW12      29.90R

$$



USA.gov is the U.S. government's official web portal to all federal, state and local government web resources and services.